Regional Weather Roundup
Issued by NWS

Home | Current Version | Previous Version | Graphics & Text | Print | Product List | Glossary On
Versions: 1 2 3 4 5 6 7 8 9 10 11 12 13 14 15 16 17 18 19 20 21 22 23 24 25 26 27 28 29 30 31 32 33 34 35 36 37 38 39 40 41 42 43 44 45 46 47 48 49 50
000
ASUS43 KLMK 012002
RWRKY
KENTUCKY REGIONAL WEATHER ROUNDUP
NATIONAL WEATHER SERVICE LOUISVILLE KY
400 PM EDT MON JUN 01 2015

NOTE "FAIR" INDICATES FEW OR NO CLOUDS BELOW 12,000 FEET
WITH NO SIGNIFICANT WEATHER AND/OR OBSTRUCTIONS TO VISIBILITY.

KYZ001>023-026-027-061>063-070>075-012100-
WESTERN AND SOUTH CENTRAL KENTUCKY

CITY           SKY/WX    TMP DP  RH WIND       PRES   REMARKS
PADUCAH        CLOUDY    66  58  75 N7        30.09F
HENDERSON      CLOUDY    64  55  72 NE8       30.10S
OWENSBORO      CLOUDY    62  57  83 NE7       30.11S
HOPKINSVILLE   CLOUDY    66  61  82 N6        30.07F
BOWLING GREEN  CLOUDY    66  60  81 N5        30.07S
GLASGOW        NOT AVBL
$$

KYZ024-025-028>034-038-045-046-053-012100-
NORTH CENTRAL KENTUCKY

CITY           SKY/WX    TMP DP  RH WIND       PRES   REMARKS
LOUISVILLE/SDF CLOUDY    61  54  77 N9        30.11F
LOUISVILLE/LOU CLOUDY    60  54  80 NE7       30.12S
FORT KNOX      CLOUDY    59  55  88 NE6       30.08F
$$

KYZ035>037-039>044-047>052-055>060-089>105-012100-
NORTHEAST KENTUCKY

CITY           SKY/WX    TMP DP  RH WIND       PRES   REMARKS
LEXINGTON      CLOUDY    58  54  86 N9        30.10F
COVINGTON      CLOUDY    56  51  84 NE10      30.13S
FRANKFORT      CLOUDY    57  53  86 N7        30.11S
$$

KYZ054-064>069-076>088-106>120-012100-
SOUTHEAST KENTUCKY

CITY           SKY/WX    TMP DP  RH WIND       PRES   REMARKS
JACKSON        LGT RAIN  62  60  93 VRB5      30.06S FOG
LONDON         CLOUDY    67  60  78 NW8       30.07S
SOMERSET       NOT AVBL
MIDDLESBORO    RAIN      67  65  94 CALM      30.06R
MONTICELLO     CLOUDY    67  67 100 N8        30.09S FOG
$$




USA.gov is the U.S. government's official web portal to all federal, state and local government web resources and services.